Destin, Florida, United States (32540)
Lat: 30.39N, Lon: 86.5W
Wx Zone: FLZ006
Local Info
Past Weather Observations for Monday, October 20, 2014

NOTE: This archive is for the closest National Weather Service station to Destin. Information may differ from the station used for current weather conditions.

Click here for Long-term Archive

Time Weather Temperature Dewpoint Humidity Pressure Winds Precip Visibility
23:53
Clear
64°F / 18°C 55°F / 13°C 73% 30.01 in
(1016 mb)
N 5.8 mph
(N 9 kph)
- 10SM
22:53
Clear
66°F / 19°C 57°F / 14°C 73% 30.01 in
(1016 mb)
N 5.8 mph
(N 9 kph)
- 10SM
21:53
Clear
66°F / 19°C 59°F / 15°C 78% 30.01 in
(1016 mb)
N 6.9 mph
(N 11 kph)
- 10SM
20:53
Clear
68°F / 20°C 59°F / 15°C 73% 30.01 in
(1016 mb)
N 3.5 mph
(N 6 kph)
- 10SM
19:53
Clear
70°F / 21°C 63°F / 17°C 78% 30.01 in
(1016 mb)
N 4.6 mph
(N 7 kph)
- 10SM
18:53
Clear
72°F / 22°C 63°F / 17°C 73% 30.01 in
(1016 mb)
NNW 4.6 mph
(NNW 7 kph)
- 10SM
17:53
Clear
73°F / 23°C 63°F / 17°C 69% 29.98 in
(1015 mb)
Calm - 10SM
16:53
Clear
75°F / 24°C 63°F / 17°C 65% 29.98 in
(1015 mb)
Calm - 10SM
15:53
Clear
75°F / 24°C 63°F / 17°C 65% 29.98 in
(1015 mb)
SSW 4.6 mph
(SSW 7 kph)
- 10SM
14:53
Clear
77°F / 25°C 63°F / 17°C 61% 29.98 in
(1015 mb)
SSE 4.6 mph
(SSE 7 kph)
- 10SM
13:53
Clear
77°F / 25°C 63°F / 17°C 61% 30.01 in
(1016 mb)
SW 5.8 mph
(SW 9 kph)
- 10SM
12:53
Partly Cloudy
79°F / 26°C 63°F / 17°C 58% 30.01 in
(1016 mb)
Variable 4.6 mph
(Variable 7 kph)
- 10SM
11:53
Partly Cloudy
79°F / 26°C 61°F / 16°C 54% 30.04 in
(1017 mb)
Variable 5.8 mph
(Variable 9 kph)
- 10SM
11:38
Partly Cloudy
79°F / 26°C 63°F / 17°C 58% 30.04 in
(1017 mb)
SE 5.8 mph
(SE 9 kph)
- 10SM
11:05
Mostly Cloudy
79°F / 26°C 64°F / 18°C 61% 30.04 in
(1017 mb)
NE 4.6 mph
(NE 7 kph)
- 10SM
10:53
Partly Cloudy
77°F / 25°C 64°F / 18°C 65% 30.04 in
(1017 mb)
NE 4.6 mph
(NE 7 kph)
- 10SM
09:53
Clear
75°F / 24°C 64°F / 18°C 69% 30.06 in
(1018 mb)
ENE 5.8 mph
(ENE 9 kph)
- 10SM
08:53
Clear
72°F / 22°C 63°F / 17°C 73% 30.06 in
(1018 mb)
NE 5.8 mph
(NE 9 kph)
- 10SM
07:53
Clear
66°F / 19°C 61°F / 16°C 83% 30.06 in
(1018 mb)
NE 6.9 mph
(NE 11 kph)
- 10SM
06:53
Clear
64°F / 18°C 61°F / 16°C 88% 30.06 in
(1018 mb)
NE 3.5 mph
(NE 6 kph)
- 10SM
05:53
Clear
61°F / 16°C 55°F / 13°C 83% 30.04 in
(1017 mb)
NE 5.8 mph
(NE 9 kph)
- 10SM
04:53
Clear
63°F / 17°C 57°F / 14°C 83% 30.04 in
(1017 mb)
NE 3.5 mph
(NE 6 kph)
- 10SM
03:53
Clear
61°F / 16°C 57°F / 14°C 88% 30.04 in
(1017 mb)
NE 3.5 mph
(NE 6 kph)
- 10SM
02:53
Clear
57°F / 14°C 54°F / 12°C 88% 30.04 in
(1017 mb)
NE 4.6 mph
(NE 7 kph)
- 10SM
01:53
Clear
61°F / 16°C 55°F / 13°C 83% 30.06 in
(1018 mb)
Calm - 10SM
00:53
Clear
61°F / 16°C 54°F / 12°C 77% 30.06 in
(1018 mb)
Calm - 10SM
Time Weather Temperature Dewpoint Humidity Pressure Winds Precip Visibility


Weather for websites

WeatherForYou.com, LLC is not responsible for any damages or problems caused by this service. Current weather conditions are obtained from the closest station including government and personal stations which may have varying degrees of accuracy. Weather forecasts are derived from the NOAA NDFD. Like all things, this site belongs to Jesus Christ... He just trusts me to maintain it. If you have any questions or comments email webmaster@weatherforyou.com

Copyright © 2014, WeatherForYou.com LLC. All rights reserved.